Hourly Weather Juazeiro do Norte

Today, 5 December, Saturday

Time Temperature Precipitation Wind Pressure Humidity
00:00 +28°C° 0 mm 1 mps 725 mmHg 54%
01:00 +27°C° 0 mm 1 mps 725 mmHg 60%
02:00 +26°C° 0 mm 1 mps 725 mmHg 66%
03:00 +23°C° 0 mm 0 mps 725 mmHg 72%
04:00 +25°C° 0 mm 1 mps 725 mmHg 73%
05:00 +25°C° 0 mm 1 mps 726 mmHg 74%
06:00 +25°C° 0 mm 1 mps 726 mmHg 76%
07:00 +27°C° 0 mm 1 mps 726 mmHg 68%
08:00 +29°C° 0 mm 2 mps 727 mmHg 61%
09:00 +31°C° 0 mm 2 mps 728 mmHg 54%
10:00 +34°C° 0 mm 2 mps 727 mmHg 48%
11:00 +36°C° 0 mm 2 mps 727 mmHg 41%
12:00 +37°C° 0 mm 2 mps 727 mmHg 34%
13:00 +38°C° 0 mm 2 mps 726 mmHg 32%
14:00 +38°C° 0 mm 2 mps 725 mmHg 29%
15:00 +38°C° 0 mm 2 mps 724 mmHg 27%
16:00 +36°C° 0 mm 2 mps 724 mmHg 31%
17:00 +33°C° 0 mm 1 mps 724 mmHg 34%
18:00 +32°C° 0 mm 1 mps 723 mmHg 38%
19:00 +31°C° 0 mm 1 mps 724 mmHg 40%
20:00 +30°C° 0 mm 1 mps 725 mmHg 41%
21:00 +30°C° 0 mm 1 mps 725 mmHg 43%
22:00 +29°C° 0 mm 1 mps 725 mmHg 49%
23:00 +28°C° 0 mm 1 mps 725 mmHg 56%

Tomorrow, 6 December, Sunday

Time Temperature Precipitation Wind Pressure Humidity
00:00 +27°C° 0 mm 2 mps 725 mmHg 62%
01:00 +26°C° 0 mm 1 mps 725 mmHg 68%
02:00 +26°C° 0 mm 1 mps 725 mmHg 74%
03:00 +25°C° 0 mm 1 mps 725 mmHg 80%
04:00 +25°C° 0 mm 1 mps 725 mmHg 80%
05:00 +25°C° 0 mm 2 mps 726 mmHg 79%
06:00 +25°C° 0 mm 2 mps 726 mmHg 79%
07:00 +27°C° 0 mm 2 mps 727 mmHg 70%
08:00 +29°C° 0 mm 2 mps 727 mmHg 61%
09:00 +31°C° 0 mm 2 mps 728 mmHg 51%
10:00 +34°C° 0 mm 2 mps 727 mmHg 45%
11:00 +36°C° 0 mm 2 mps 727 mmHg 38%
12:00 +37°C° 0 mm 2 mps 726 mmHg 32%
13:00 +38°C° 0 mm 2 mps 725 mmHg 30%
14:00 +38°C° 0 mm 2 mps 724 mmHg 28%
15:00 +38°C° 0 mm 2 mps 724 mmHg 26%
16:00 +36°C° 0 mm 2 mps 724 mmHg 29%
17:00 +34°C° 0 mm 2 mps 724 mmHg 33%
18:00 +31°C° 0 mm 1 mps 724 mmHg 37%
19:00 +30°C° 0 mm 1 mps 724 mmHg 39%
20:00 +30°C° 0 mm 1 mps 725 mmHg 40%
21:00 +27°C° 0 mm 0 mps 725 mmHg 42%
22:00 +28°C° 0 mm 1 mps 725 mmHg 46%
23:00 +28°C° 0 mm 1 mps 725 mmHg 50%

Day after tomorrow, 7 December, Monday

Time Temperature Precipitation Wind Pressure Humidity
00:00 +27°C° 0 mm 1 mps 726 mmHg 54%
01:00 +26°C° 0 mm 1 mps 725 mmHg 61%
02:00 +25°C° 0 mm 1 mps 725 mmHg 68%
03:00 +25°C° 0 mm 1 mps 725 mmHg 74%
04:00 +25°C° 0 mm 1 mps 725 mmHg 75%
05:00 +25°C° 0 mm 1 mps 726 mmHg 75%
06:00 +25°C° 0 mm 1 mps 726 mmHg 75%
07:00 +27°C° 0 mm 2 mps 727 mmHg 64%
08:00 +30°C° 0 mm 2 mps 727 mmHg 53%
09:00 +32°C° 0 mm 2 mps 727 mmHg 43%
10:00 +35°C° 0 mm 2 mps 727 mmHg 37%
11:00 +37°C° 0 mm 3 mps 726 mmHg 32%
12:00 +38°C° 0 mm 3 mps 726 mmHg 27%
13:00 +38°C° 0 mm 3 mps 725 mmHg 26%
14:00 +38°C° 0 mm 3 mps 724 mmHg 24%
15:00 +39°C° 0 mm 3 mps 724 mmHg 23%
16:00 +37°C° 0 mm 2 mps 724 mmHg 27%
17:00 +35°C° 0 mm 2 mps 724 mmHg 30%
18:00 +32°C° 0 mm 1 mps 724 mmHg 34%
19:00 +31°C° 0 mm 1 mps 724 mmHg 35%
20:00 +30°C° 0 mm 1 mps 725 mmHg 36%
21:00 +27°C° 0 mm 0 mps 725 mmHg 38%
22:00 +29°C° 0.1 mm 1 mps 725 mmHg 46%
23:00 +28°C° 0.1 mm 1 mps 725 mmHg 53%

8 December, Tuesday

Time Temperature Precipitation Wind Pressure Humidity
00:00 +27°C° 0.1 mm 1 mps 725 mmHg 61%
01:00 +27°C° 0.1 mm 1 mps 725 mmHg 66%
02:00 +26°C° 0.1 mm 1 mps 725 mmHg 72%
03:00 +26°C° 0.1 mm 1 mps 725 mmHg 77%
04:00 +25°C° 0 mm 1 mps 726 mmHg 78%
05:00 +25°C° 0 mm 1 mps 726 mmHg 78%
06:00 +25°C° 0 mm 1 mps 727 mmHg 79%
07:00 +27°C° 0 mm 1 mps 727 mmHg 68%
08:00 +29°C° 0 mm 2 mps 728 mmHg 57%
09:00 +32°C° 0 mm 2 mps 728 mmHg 46%
10:00 +34°C° 0 mm 3 mps 727 mmHg 39%
11:00 +36°C° 0 mm 3 mps 727 mmHg 32%
12:00 +38°C° 0 mm 3 mps 726 mmHg 25%
13:00 +38°C° 0 mm 3 mps 725 mmHg 24%
14:00 +38°C° 0 mm 3 mps 725 mmHg 23%
15:00 +38°C° 0 mm 3 mps 724 mmHg 21%
16:00 +36°C° 0 mm 2 mps 724 mmHg 24%
17:00 +34°C° 0 mm 2 mps 724 mmHg 28%
18:00 +31°C° 0 mm 1 mps 724 mmHg 31%
19:00 +31°C° 0 mm 1 mps 724 mmHg 33%
20:00 +30°C° 0 mm 1 mps 725 mmHg 35%
21:00 +29°C° 0 mm 1 mps 725 mmHg 38%
22:00 +28°C° 0 mm 1 mps 725 mmHg 44%
23:00 +28°C° 0 mm 2 mps 725 mmHg 50%

9 December, Wednesday

Time Temperature Precipitation Wind Pressure Humidity
00:00 +27°C° 0 mm 2 mps 726 mmHg 56%
01:00 +27°C° 0 mm 2 mps 725 mmHg 64%
02:00 +26°C° 0 mm 2 mps 725 mmHg 72%
03:00 +25°C° 0 mm 1 mps 725 mmHg 80%
04:00 +25°C° 0 mm 2 mps 725 mmHg 78%
05:00 +25°C° 0 mm 2 mps 726 mmHg 77%
06:00 +25°C° 0 mm 2 mps 726 mmHg 75%
07:00 +26°C° 0 mm 2 mps 727 mmHg 67%
08:00 +28°C° 0 mm 2 mps 727 mmHg 58%
09:00 +30°C° 0 mm 3 mps 728 mmHg 49%
10:00 +31°C° 0 mm 3 mps 727 mmHg 43%
11:00 +34°C° 0 mm 3 mps 727 mmHg 37%
12:00 +35°C° 0 mm 3 mps 727 mmHg 31%
13:00 +36°C° 0 mm 3 mps 726 mmHg 30%
14:00 +36°C° 0 mm 2 mps 725 mmHg 29%
15:00 +36°C° 0 mm 2 mps 725 mmHg 27%
16:00 +35°C° 0 mm 2 mps 724 mmHg 29%
17:00 +32°C° 0 mm 1 mps 724 mmHg 30%
18:00 +31°C° 0 mm 1 mps 724 mmHg 32%
19:00 +29°C° 0 mm 1 mps 725 mmHg 34%
20:00 +28°C° 0 mm 1 mps 725 mmHg 36%
21:00 +27°C° 0 mm 1 mps 725 mmHg 38%
22:00 +27°C° 0 mm 1 mps 725 mmHg 45%
23:00 +26°C° 0 mm 1 mps 725 mmHg 52%

10 December, Thursday

Time Temperature Precipitation Wind Pressure Humidity
00:00 +25°C° 0 mm 2 mps 725 mmHg 59%
01:00 +25°C° 0 mm 2 mps 725 mmHg 66%
02:00 +24°C° 0 mm 1 mps 725 mmHg 73%
03:00 +24°C° 0 mm 1 mps 725 mmHg 80%
04:00 +24°C° 0 mm 1 mps 725 mmHg 81%
05:00 +24°C° 0 mm 1 mps 726 mmHg 82%
06:00 +24°C° 0 mm 1 mps 726 mmHg 83%
07:00 +27°C° 0 mm 2 mps 726 mmHg 69%
08:00 +29°C° 0 mm 2 mps 727 mmHg 56%
09:00 +31°C° 0 mm 3 mps 727 mmHg 43%
10:00 +34°C° 0 mm 3 mps 727 mmHg 38%
11:00 +36°C° 0 mm 3 mps 726 mmHg 33%
12:00 +38°C° 0 mm 3 mps 726 mmHg 29%
13:00 +38°C° 0 mm 3 mps 725 mmHg 27%
14:00 +38°C° 0 mm 3 mps 724 mmHg 26%
15:00 +38°C° 0 mm 4 mps 723 mmHg 24%
16:00 +36°C° 0 mm 3 mps 723 mmHg 28%
17:00 +34°C° 0 mm 2 mps 723 mmHg 31%
18:00 +31°C° 0 mm 2 mps 723 mmHg 35%
19:00 +30°C° 0 mm 1 mps 724 mmHg 37%
20:00 +29°C° 0 mm 1 mps 724 mmHg 40%
21:00 +28°C° 0 mm 1 mps 725 mmHg 42%
22:00 +28°C° 0 mm 1 mps 725 mmHg 49%
23:00 +27°C° 0 mm 1 mps 725 mmHg 55%
Show more